• In Lithuania
  • List of Countries
  • For 7 days
  • Water Temperature
  • Satellite Maps
  • Weather Map
  • Weather Widgets
  • user-avatar
    Login

    Hourly Weather Kulyub

    Today, 15 July, Sunday

    Time Temperature Precipitation Wind Pressure Humidity
    00:00 +34°C° 0 mm 1 mps 712 mmHg 22%
    01:00 +34°C° 0 mm 2 mps 712 mmHg 22%
    02:00 +32°C° 0 mm 2 mps 712 mmHg 23%
    03:00 +32°C° 0 mm 2 mps 712 mmHg 23%
    04:00 +31°C° 0 mm 2 mps 712 mmHg 24%
    05:00 +31°C° 0 mm 2 mps 712 mmHg 25%
    06:00 +33°C° 0 mm 1 mps 712 mmHg 23%
    07:00 +35°C° 0 mm 1 mps 713 mmHg 21%
    08:00 +37°C° 0 mm 1 mps 713 mmHg 19%
    09:00 +39°C° 0 mm 1 mps 713 mmHg 17%
    10:00 +41°C° 0 mm 1 mps 713 mmHg 15%
    11:00 +42°C° 0 mm 1 mps 713 mmHg 13%
    12:00 +43°C° 0 mm 2 mps 712 mmHg 13%
    13:00 +45°C° 0 mm 2 mps 712 mmHg 12%
    14:00 +46°C° 0 mm 3 mps 712 mmHg 11%
    15:00 +46°C° 0 mm 3 mps 712 mmHg 11%
    16:00 +46°C° 0 mm 3 mps 711 mmHg 11%
    17:00 +46°C° 0 mm 2 mps 711 mmHg 11%
    18:00 +43°C° 0 mm 2 mps 711 mmHg 13%
    19:00 +41°C° 0 mm 1 mps 711 mmHg 15%
    20:00 +37°C° 0 mm 1 mps 711 mmHg 18%
    21:00 +37°C° 0 mm 1 mps 711 mmHg 18%
    22:00 +36°C° 0 mm 1 mps 711 mmHg 19%
    23:00 +35°C° 0 mm 1 mps 712 mmHg 19%

    Tomorrow, 16 July, Monday

    Time Temperature Precipitation Wind Pressure Humidity
    00:00 +34°C° 0 mm 1 mps 712 mmHg 20%
    01:00 +35°C° 0 mm 2 mps 712 mmHg 21%
    02:00 +34°C° 0 mm 2 mps 712 mmHg 22%
    03:00 +32°C° 0 mm 2 mps 712 mmHg 23%
    04:00 +32°C° 0 mm 2 mps 712 mmHg 24%
    05:00 +31°C° 0 mm 2 mps 712 mmHg 24%
    06:00 +33°C° 0 mm 1 mps 712 mmHg 22%
    07:00 +35°C° 0 mm 1 mps 712 mmHg 20%
    08:00 +37°C° 0 mm 1 mps 713 mmHg 18%
    09:00 +39°C° 0 mm 1 mps 713 mmHg 17%
    10:00 +41°C° 0 mm 2 mps 713 mmHg 15%
    11:00 +42°C° 0 mm 2 mps 712 mmHg 14%
    12:00 +43°C° 0 mm 2 mps 712 mmHg 13%
    13:00 +44°C° 0 mm 3 mps 712 mmHg 12%
    14:00 +45°C° 0 mm 3 mps 711 mmHg 12%
    15:00 +45°C° 0 mm 2 mps 711 mmHg 12%
    16:00 +45°C° 0 mm 2 mps 711 mmHg 11%
    17:00 +45°C° 0 mm 2 mps 711 mmHg 11%
    18:00 +42°C° 0 mm 2 mps 711 mmHg 14%
    19:00 +40°C° 0 mm 1 mps 711 mmHg 16%
    20:00 +37°C° 0 mm 1 mps 711 mmHg 18%
    21:00 +36°C° 0 mm 1 mps 711 mmHg 19%
    22:00 +35°C° 0 mm 1 mps 711 mmHg 19%
    23:00 +34°C° 0 mm 1 mps 712 mmHg 20%

    Day after tomorrow, 17 July, Tuesday

    Time Temperature Precipitation Wind Pressure Humidity
    00:00 +34°C° 0 mm 1 mps 712 mmHg 20%
    01:00 +33°C° 0 mm 1 mps 712 mmHg 21%
    02:00 +34°C° 0 mm 2 mps 712 mmHg 21%
    03:00 +32°C° 0 mm 2 mps 712 mmHg 22%
    04:00 +32°C° 0 mm 2 mps 712 mmHg 22%
    05:00 +31°C° 0 mm 2 mps 712 mmHg 23%
    06:00 +33°C° 0 mm 1 mps 712 mmHg 21%
    07:00 +35°C° 0 mm 1 mps 713 mmHg 19%
    08:00 +37°C° 0 mm 1 mps 713 mmHg 18%
    09:00 +39°C° 0 mm 2 mps 713 mmHg 16%
    10:00 +41°C° 0 mm 2 mps 713 mmHg 15%
    11:00 +42°C° 0 mm 2 mps 713 mmHg 13%
    12:00 +44°C° 0 mm 3 mps 713 mmHg 13%
    13:00 +45°C° 0 mm 3 mps 713 mmHg 12%
    14:00 +45°C° 0 mm 4 mps 713 mmHg 11%
    15:00 +45°C° 0 mm 3 mps 713 mmHg 11%
    16:00 +45°C° 0 mm 3 mps 713 mmHg 11%
    17:00 +45°C° 0 mm 3 mps 712 mmHg 11%
    18:00 +42°C° 0 mm 2 mps 713 mmHg 13%
    19:00 +40°C° 0 mm 2 mps 713 mmHg 15%
    20:00 +36°C° 0 mm 1 mps 713 mmHg 17%
    21:00 +36°C° 0 mm 1 mps 713 mmHg 18%
    22:00 +35°C° 0 mm 1 mps 713 mmHg 19%
    23:00 +34°C° 0 mm 1 mps 713 mmHg 19%

    18 July, Wednesday

    Time Temperature Precipitation Wind Pressure Humidity
    00:00 +33°C° 0 mm 1 mps 713 mmHg 20%
    01:00 +33°C° 0 mm 1 mps 713 mmHg 21%
    02:00 +32°C° 0 mm 1 mps 713 mmHg 21%
    03:00 +31°C° 0 mm 1 mps 713 mmHg 22%
    04:00 +31°C° 0 mm 1 mps 713 mmHg 23%
    05:00 +30°C° 0 mm 1 mps 713 mmHg 24%
    06:00 +32°C° 0 mm 1 mps 714 mmHg 22%
    07:00 +34°C° 0 mm 1 mps 714 mmHg 20%
    08:00 +36°C° 0 mm 1 mps 715 mmHg 18%
    09:00 +39°C° 0 mm 1 mps 715 mmHg 16%
    10:00 +40°C° 0 mm 2 mps 715 mmHg 15%
    11:00 +41°C° 0 mm 2 mps 715 mmHg 13%
    12:00 +42°C° 0 mm 2 mps 714 mmHg 13%
    13:00 +44°C° 0 mm 3 mps 714 mmHg 12%
    14:00 +44°C° 0 mm 3 mps 713 mmHg 11%
    15:00 +45°C° 0 mm 3 mps 713 mmHg 11%
    16:00 +45°C° 0 mm 2 mps 713 mmHg 11%
    17:00 +45°C° 0 mm 2 mps 713 mmHg 11%
    18:00 +41°C° 0 mm 2 mps 713 mmHg 13%
    19:00 +39°C° 0 mm 1 mps 713 mmHg 15%
    20:00 +36°C° 0 mm 1 mps 713 mmHg 18%
    21:00 +35°C° 0 mm 1 mps 713 mmHg 18%
    22:00 +34°C° 0 mm 1 mps 713 mmHg 19%
    23:00 +33°C° 0 mm 1 mps 714 mmHg 19%

    19 July, Thursday

    Time Temperature Precipitation Wind Pressure Humidity
    00:00 +33°C° 0 mm 1 mps 713 mmHg 19%
    01:00 +32°C° 0 mm 1 mps 713 mmHg 20%
    02:00 +32°C° 0 mm 2 mps 713 mmHg 20%
    03:00 +31°C° 0 mm 2 mps 713 mmHg 21%
    04:00 +31°C° 0 mm 2 mps 713 mmHg 22%
    05:00 +30°C° 0 mm 2 mps 713 mmHg 23%
    06:00 +32°C° 0 mm 1 mps 713 mmHg 21%
    07:00 +34°C° 0 mm 1 mps 713 mmHg 19%
    08:00 +36°C° 0 mm 1 mps 714 mmHg 17%
    09:00 +37°C° 0 mm 1 mps 713 mmHg 16%
    10:00 +40°C° 0 mm 1 mps 713 mmHg 14%
    11:00 +41°C° 0 mm 2 mps 713 mmHg 13%
    12:00 +42°C° 0 mm 2 mps 713 mmHg 12%
    13:00 +43°C° 0 mm 2 mps 712 mmHg 12%
    14:00 +45°C° 0 mm 3 mps 712 mmHg 11%
    15:00 +45°C° 0 mm 2 mps 712 mmHg 11%
    16:00 +45°C° 0 mm 2 mps 711 mmHg 11%
    17:00 +45°C° 0 mm 2 mps 711 mmHg 11%
    18:00 +42°C° 0 mm 2 mps 711 mmHg 13%
    19:00 +40°C° 0 mm 1 mps 711 mmHg 16%
    20:00 +36°C° 0 mm 1 mps 711 mmHg 18%
    21:00 +36°C° 0 mm 1 mps 712 mmHg 18%
    22:00 +35°C° 0 mm 1 mps 712 mmHg 18%
    23:00 +34°C° 0 mm 1 mps 712 mmHg 18%

    20 July, Friday

    Time Temperature Precipitation Wind Pressure Humidity
    00:00 +34°C° 0 mm 1 mps 712 mmHg 19%
    01:00 +34°C° 0 mm 2 mps 711 mmHg 20%
    02:00 +34°C° 0 mm 2 mps 711 mmHg 20%
    03:00 +32°C° 0 mm 2 mps 711 mmHg 21%
    04:00 +32°C° 0 mm 2 mps 711 mmHg 21%
    05:00 +31°C° 0 mm 2 mps 711 mmHg 22%
    06:00 +33°C° 0 mm 1 mps 712 mmHg 20%
    07:00 +35°C° 0 mm 1 mps 712 mmHg 18%
    08:00 +37°C° 0 mm 1 mps 712 mmHg 17%
    09:00 +39°C° 0 mm 1 mps 712 mmHg 15%
    10:00 +40°C° 0 mm 2 mps 712 mmHg 14%
    11:00 +42°C° 0 mm 2 mps 712 mmHg 12%
    12:00 +44°C° 0 mm 3 mps 712 mmHg 12%
    13:00 +44°C° 0 mm 3 mps 712 mmHg 11%
    14:00 +45°C° 0 mm 3 mps 711 mmHg 11%
    15:00 +45°C° 0 mm 3 mps 711 mmHg 11%
    16:00 +45°C° 0 mm 3 mps 711 mmHg 11%
    17:00 +45°C° 0 mm 3 mps 711 mmHg 11%
    18:00 +43°C° 0 mm 3 mps 711 mmHg 13%
    19:00 +40°C° 0 mm 2 mps 712 mmHg 15%
    20:00 +37°C° 0 mm 1 mps 712 mmHg 16%
    21:00 +36°C° 0 mm 1 mps 712 mmHg 17%
    22:00 +35°C° 0 mm 1 mps 712 mmHg 18%
    23:00 +34°C° 0 mm 1 mps 712 mmHg 19%
    Show more